29,2014-05-04 18:05:13,1399226713,59.76652,-5.70351,5,1,2014-05-04 18:05:08,1399226708,12.931,10,11.1,0,0,59.7937,-5.7035,3,5
30,2014-05-04 19:05:12,1399230312,59.78248,-4.49157,96,1,2014-05-04 19:05:09,1399230309,10.007,10,11.2,0,0,59.8131,-5.7155,3,5
31,2014-05-04 20:05:12,1399233912,59.79226,-8.65407,184,1,2014-05-04 20:05:43,1399233943,10.007,10,11.2,0,0,59.8088,-5.6958,3,5
32,2014-05-04 21:05:20,1399237520,59.80046,-5.63967,2,1,2014-05-04 21:05:07,1399237507,9.921,25,11.1,0,0,59.8041,-5.6734,3,5
33,2014-05-04 22:05:27,1399241127,59.69004,-8.70294,184,1,2014-05-04 22:05:09,1399241109,9.964,25,11.2,0,0,59.8018,-5.6561,18,5
34,2014-05-04 23:05:14,1399244714,59.76958,-5.63268,6,1,2014-05-04 23:05:09,1399244709,9.835,25,11.1,0,0,59.8017,-5.6353,3,5
35,2014-05-05 00:05:13,1399248313,59.82154,-5.56874,3,3,2014-05-05 00:05:20,1399248320,9.835,25,11.2,0,0,59.8037,-5.613,3,5
36,2014-05-05 01:05:11,1399251911,59.77261,-5.56183,5,1,2014-05-05 01:05:01,1399251901,9.878,24,11.1,0,0,59.8065,-5.5931,3,4
37,2014-05-05 02:05:08,1399255508,59.8471,-4.92956,78,1,2014-05-05 02:05:43,1399255543,9.878,24,11.1,0,0,59.8098,-5.5766,3,5
38,2014-05-05 03:05:12,1399259112,59.82154,-5.56874,3,0,2014-05-05 03:05:09,1399259109,9.878,24,11.1,0,0,59.8132,-5.5633,3,5
39,2014-05-05 04:05:14,1399262714,59.86484,-4.43156,97,3,2014-05-05 04:05:20,1399262720,9.878,24,11.1,0,0,59.8166,-5.5532,3,5
40,2014-05-05 05:05:38,1399266338,59.85543,-5.50462,6,0,2014-05-05 05:05:44,1399266344,9.835,27,11.1,0,0,59.8189,-5.5443,20,5
41,2014-05-05 06:05:09,1399269909,59.85244,-5.57566,14,1,2014-05-05 06:05:11,1399269911,9.835,27,11.1,0,0,59.8213,-5.5373,3,5
42,2014-05-05 07:05:08,1399273508,59.82454,-5.49778,2,0,2014-05-05 07:05:10,1399273510,9.835,27,11.1,0,0,59.8216,-5.5301,3,5
43,2014-05-05 08:05:12,1399277112,59.82154,-5.56874,2,1,2014-05-05 08:05:11,1399277111,9.835,27,11.1,0,0,59.8223,-5.5208,3,5
44,2014-05-05 09:05:19,1399280719,59.85543,-5.50462,8,0,2014-05-05 09:05:27,1399280727,9.835,28,11.2,0,0,59.8234,-5.5083,3,5
45,2014-05-05 10:05:11,1399284311,59.85543,-5.50462,8,2,2014-05-05 10:05:06,1399284306,9.835,28,11.1,0,0,59.8257,-5.4923,3,5
46,2014-05-05 11:05:11,1399287911,59.80944,-5.42681,4,0,2014-05-05 11:05:12,1399287912,9.878,28,11.1,0,0,59.8292,-5.4747,3,5
47,2014-05-05 12:05:12,1399291512,59.80648,-5.49778,4,2,2014-05-05 12:05:03,1399291503,9.921,28,11.1,0,0,59.8337,-5.4541,3,5
48,2014-05-05 13:05:13,1399295113,59.86132,-5.36249,5,2,2014-05-05 13:05:08,1399295108,9.964,25,11.1,0,0,59.8386,-5.4335,3,5
49,2014-05-05 14:05:10,1399298710,59.80944,-5.42681,4,2,2014-05-05 14:05:22,1399298722,9.921,25,11.1,0,0,59.8436,-5.4151,3,5
50,2014-05-05 15:05:19,1399302319,60.0229,-8.35336,188,2,2014-05-05 15:05:13,1399302313,9.921,25,11.1,0,0,59.8481,-5.3985,3,3
51,2014-05-05 16:05:08,1399305908,59.86132,-5.36249,2,2,2014-05-05 16:05:14,1399305914,9.878,25,11.1,0,0,59.8517,-5.3843,3,5
52,2014-05-05 17:05:07,1399309507,59.97823,-7.76517,151,1,2014-05-05 17:05:19,1399309519,9.878,26,11.1,0,0,59.8542,-5.3743,3,4
53,2014-05-05 18:05:11,1399313111,59.85839,-5.43356,1,2,2014-05-05 18:05:14,1399313114,9.878,26,11.2,0,0,59.8547,-5.3664,3,5
54,2014-05-05 19:05:12,1399316712,59.95661,-7.03619,131,2,2014-05-05 19:05:10,1399316710,9.878,26,11.1,0,0,59.8549,-5.3626,3,5
55,2014-05-05 20:05:14,1399320314,59.74635,-11.25406,337,1,2014-05-05 20:05:04,1399320304,9.878,26,11.1,0,0,59.8567,-5.3581,3,5
56,2014-05-05 21:05:27,1399323927,59.83041,-5.35583,4,1,2014-05-05 21:05:00,1399323900,9.878,28,11.1,0,0,59.8604,-5.3505,19,2
57,2014-05-05 22:05:31,1399327531,59.83041,-5.35583,10,1,2014-05-05 22:05:34,1399327534,9.835,28,11.1,0,0,59.8647,-5.337,23,1
58,2014-05-05 23:05:10,1399331110,59.83041,-5.35583,5,1,2014-05-05 23:05:09,1399331109,9.835,28,11.1,0,0,59.8644,-5.3171,3,5
59,2014-05-06 00:05:16,1399334716,59.81483,-7.79728,156,1,2014-05-06 00:05:12,1399334712,9.835,28,11.1,0,0,59.8652,-5.2962,3,5
60,2014-05-06 01:05:14,1399338314,59.8642,-5.2914,2,1,2014-05-06 01:05:08,1399338308,9.835,28,11.1,0,0,59.8682,-5.2746,3,5
61,2014-05-06 02:05:11,1399341911,59.7896,-7.14269,124,0,2014-05-06 02:05:35,1399341935,9.835,28,11.1,0,0,59.8743,-5.2592,3,5
62,2014-05-06 03:05:11,1399345511,59.8642,-5.2914,2,1,2014-05-06 03:05:01,1399345501,9.835,28,11.1,0,0,59.8761,-5.2462,3,5
63,2014-05-06 04:05:42,1399349142,59.86985,-5.14917,3,1,2014-05-06 04:05:12,1399349112,9.835,28,11.1,0,0,59.8796,-5.2349,34,5
64,2014-05-06 05:05:09,1399352709,59.86985,-5.14917,1,0,2014-05-06 05:05:09,1399352709,9.835,27,11.1,0,0,59.8831,-5.2273,3,5
65,2014-05-06 06:05:11,1399356311,59.92535,-4.08052,92,0,2014-05-06 06:05:36,1399356336,9.835,27,11.1,0,0,59.8847,-5.2231,3,5
66,2014-05-06 07:05:21,1399359921,59.86704,-5.22029,6,1,2014-05-06 07:05:12,1399359912,9.835,27,11.1,0,0,59.887,-5.2205,3,5
67,2014-05-06 08:05:25,1399363525,59.91599,-5.2268,8,187,2014-05-06 08:05:12,1399363512,9.835,27,11.1,0,0,59.8891,-5.2182,18,5
68,2014-05-06 09:05:12,1399367112,59.91599,-5.2268,4,187,2014-05-06 09:05:20,1399367120,9.835,28,11.1,0,0,59.8913,-5.2147,3,5
69,2014-05-06 10:05:21,1399370721,59.86704,-5.22029,7,188,2014-05-06 10:05:12,1399370712,9.878,28,11.1,0,0,59.8944,-5.2085,3,5
70,2014-05-06 11:05:11,1399374311,59.9188,-5.15558,2,190,2014-05-06 11:05:13,1399374313,9.964,28,11.1,0,0,59.8977,-5.1962,3,5
71,2014-05-06 12:05:12,1399377912,59.91599,-5.2268,2,190,2014-05-06 12:05:26,1399377926,10.007,28,11.1,0,0,59.901,-5.1799,3,5
72,2014-05-06 13:05:30,1399381530,59.91599,-5.2268,2,2,2014-05-06 13:05:32,1399381532,10.05,36,11.1,0,0,59.9055,-5.162,22,5
73,2014-05-06 14:05:11,1399385111,59.89063,-5.07803,2,1,2014-05-06 14:05:09,1399385109,10.136,36,11.1,0,0,59.9103,-5.1444,3,5
74,2014-05-06 15:05:12,1399388712,60.2206,-10.09166,286,2,2014-05-06 15:05:06,1399388706,10.179,36,11.1,0,0,59.9154,-5.1275,3,5
75,2014-05-06 16:05:12,1399392312,59.9188,-5.15558,2,3,2014-05-06 16:05:33,1399392333,10.093,36,11.1,0,0,59.9204,-5.1135,3,5
76,2014-05-06 17:05:30,1399395930,59.9188,-5.15558,3,1,2014-05-06 17:05:12,1399395912,10.05,27,11.1,0,0,59.9255,-5.1035,22,3
77,2014-05-06 18:05:11,1399399511,59.92157,-5.08436,2,1,2014-05-06 18:05:07,1399399507,10.007,27,11.1,0,0,59.9314,-5.0958,3,5
78,2014-05-06 19:05:13,1399403113,60.02039,-6.76014,120,2,2014-05-06 19:05:12,1399403112,9.964,27,11.1,0,0,59.9365,-5.0896,3,5
79,2014-05-06 20:05:11,1399406711,59.94975,-5.16202,3,1,2014-05-06 20:05:03,1399406703,9.964,27,11.1,0,0,59.9406,-5.0812,3,5
80,2014-05-06 21:05:13,1399410313,59.92157,-5.08436,4,2,2014-05-06 21:05:43,1399410343,10.007,27,11.1,0,0,59.9443,-5.0704,3,5
81,2014-05-06 22:05:18,1399413918,59.92157,-5.08436,2,2,2014-05-06 22:05:12,1399413912,10.007,27,11.1,0,0,59.9484,-5.0571,3,1
82,2014-05-06 23:05:11,1399417511,59.92431,-5.01311,2,4,2014-05-06 23:05:09,1399417509,10.007,27,11.1,0,0,59.952,-5.0385,3,5
83,2014-05-07 00:05:20,1399421120,59.927,-4.94186,3,2,2014-05-07 00:05:43,1399421143,9.921,27,11.1,0,0,59.9562,-5.0159,3,5
84,2014-05-07 01:05:13,1399424713,59.95527,-5.01937,1,7,2014-05-07 01:05:14,1399424714,9.921,23,11.1,0,0,59.961,-4.9931,3,5
85,2014-05-07 02:05:12,1399428312,59.9786,-4.87666,3,2,2014-05-07 02:05:43,1399428343,9.878,23,11.1,0,0,59.9649,-4.9681,3,5
86,2014-05-07 03:05:12,1399431912,59.9786,-4.87666,2,2,2014-05-07 03:05:09,1399431909,9.878,23,11.1,0,0,59.9682,-4.9442,3,5
87,2014-05-07 04:05:09,1399435509,59.90614,-6.80587,125,2,2014-05-07 04:05:43,1399435543,9.835,23,11.1,0,0,59.9712,-4.9227,3,5
88,2014-05-07 05:05:09,1399439109,59.97594,-4.94802,2,2,2014-05-07 05:05:09,1399439109,9.835,25,11.1,0,0,59.9738,-4.9044,3,5
89,2014-05-07 06:05:20,1399442720,59.88897,-5.86694,98,2,2014-05-07 06:05:57,1399442757,9.835,25,11.1,0,0,59.9759,-4.8898,3,5
90,2014-05-07 07:05:12,1399446312,60.00958,-4.88276,4,3,2014-05-07 07:05:04,1399446304,9.835,25,11.1,0,0,59.981,-4.8813,3,5
91,2014-05-07 08:05:10,1399449910,59.92966,-4.87058,13,7,2014-05-07 08:05:44,1399449944,9.792,25,11.1,0,0,59.9795,-4.8715,3,5
92,2014-05-07 09:05:13,1399453513,59.98122,-4.80529,2,2,2014-05-07 09:05:12,1399453512,9.835,32,11.1,0,0,59.9815,-4.8643,3,5
93,2014-05-07 10:05:13,1399457113,59.9786,-4.87666,4,2,2014-05-07 10:05:01,1399457101,9.835,32,11.1,0,0,59.9839,-4.8559,3,5
94,2014-05-07 11:05:13,1399460713,59.9786,-4.87666,2,2,2014-05-07 11:05:12,1399460712,9.835,32,11.1,0,0,59.9873,-4.8458,3,5
95,2014-05-07 12:05:22,1399464322,59.98122,-4.80529,2,2,2014-05-07 12:05:09,1399464309,9.878,32,11.1,0,0,59.9918,-4.8306,3,5
96,2014-05-07 13:06:17,1399467977,60.01221,-4.81129,4,2,2014-05-07 13:05:08,1399467908,9.878,30,11.1,0,0,59.9965,-4.8139,69,2
97,2014-05-07 14:05:25,1399471525,59.98122,-4.80529,3,2,2014-05-07 14:05:14,1399471514,9.921,30,11.1,0,0,60.0011,-4.7924,18,5
98,2014-05-07 15:05:14,1399475114,59.98122,-4.80529,3,2,2014-05-07 15:05:03,1399475103,9.964,30,11.1,0,0,60.0058,-4.772,3,5
99,2014-05-07 16:05:12,1399478712,59.98381,-4.73389,3,2,2014-05-07 16:05:07,1399478707,9.964,30,11.1,0,0,60.0107,-4.7509,3,5
100,2014-05-07 17:05:13,1399482313,59.98381,-4.73389,10,5,2014-05-07 17:05:09,1399482309,9.964,28,11.1,0,0,60.015,-4.7326,3,3
101,2014-05-07 18:05:12,1399485912,59.98381,-4.73389,6,2,2014-05-07 18:05:12,1399485912,9.964,28,11.1,0,0,60.019,-4.7174,3,3
102,2014-05-07 19:05:13,1399489513,60.27841,-8.64166,232,2,2014-05-07 19:05:43,1399489543,9.964,28,11.1,0,0,60.0223,-4.7047,3,5
103,2014-05-07 20:05:49,1399493149,59.98381,-4.73389,2,1,2014-05-07 20:05:09,1399493109,9.964,28,11.1,0,0,60.0251,-4.6944,40,5
104,2014-05-07 21:05:20,1399496720,60.01735,-4.66832,2,2,2014-05-07 21:05:25,1399496725,9.964,26,11.1,0,0,60.0273,-4.6851,3,5
105,2014-05-07 22:05:12,1399500312,60.01986,-4.59681,2,2,2014-05-07 22:05:09,1399500309,9.921,26,11.1,0,0,60.0293,-4.6757,3,5
106,2014-05-07 23:05:25,1399503925,59.98635,-4.66249,5,2,2014-05-07 23:05:11,1399503911,9.921,26,11.1,0,0,60.0308,-4.665,3,5
107,2014-05-08 00:05:14,1399507514,60.01735,-4.66832,2,2,2014-05-08 00:05:07,1399507507,9.921,26,11.1,0,0,60.0326,-4.6518,3,5
108,2014-05-08 01:05:12,1399511112,59.98886,-4.59106,7,2,2014-05-08 01:05:28,1399511128,9.878,30,11.1,0,0,60.0336,-4.635,3,5
109,2014-05-08 02:05:12,1399514712,60.04027,-4.52528,4,2,2014-05-08 02:05:12,1399514712,9.921,30,11.1,0,0,60.0333,-4.6158,3,5
110,2014-05-08 03:05:13,1399518313,60.01986,-4.59681,3,8,2014-05-08 03:05:12,1399518312,9.878,30,11.1,0,0,60.0342,-4.5979,3,5
111,2014-05-08 04:05:11,1399521911,59.99133,-4.51963,8,3,2014-05-08 04:05:13,1399521913,9.878,30,11.1,0,0,60.0337,-4.5807,3,5
112,2014-05-08 05:05:09,1399525509,60.07128,-4.53095,4,2,2014-05-08 05:05:12,1399525512,9.878,29,11.1,0,0,60.0333,-4.569,3,5
113,2014-05-08 06:05:12,1399529112,60.01213,-5.60354,115,2,2014-05-08 06:05:12,1399529112,9.878,29,11.1,0,0,60.0331,-4.5623,3,5
114,2014-05-08 07:05:14,1399532714,60.04027,-4.52528,2,2,2014-05-08 07:05:12,1399532712,9.921,29,11.1,0,0,60.0335,-4.5608,3,5
115,2014-05-08 08:05:12,1399536312,59.93624,-2.36211,139,1,2014-05-08 08:05:33,1399536333,9.921,29,11.1,0,0,60.0346,-4.5632,3,5
116,2014-05-08 09:05:29,1399539929,60.0688,-4.60256,6,2,2014-05-08 09:05:12,1399539912,9.921,25,11.1,0,0,60.0365,-4.5676,22,5
117,2014-05-08 10:05:13,1399543513,60.06904,-2.15566,154,1,2014-05-08 10:05:42,1399543542,9.921,25,11.1,0,0,60.0393,-4.5724,3,3
118,2014-05-08 11:05:10,1399547110,60.0688,-4.60256,5,2,2014-05-08 11:05:12,1399547112,9.921,25,11.1,0,0,60.0427,-4.5744,3,5
119,2014-05-08 12:05:12,1399550712,60.0378,-4.59681,5,2,2014-05-08 12:05:41,1399550741,9.921,25,11.1,0,0,60.0465,-4.5721,3,3
120,2014-05-08 13:05:10,1399554310,60.04027,-4.52528,4,3,2014-05-08 13:05:14,1399554314,9.964,26,11.1,0,0,60.0504,-4.5659,3,5
121,2014-05-08 14:05:12,1399557912,60.0688,-4.60256,4,2,2014-05-08 14:05:12,1399557912,10.05,26,11.1,0,0,60.0545,-4.5553,3,5
122,2014-05-08 15:05:12,1399561512,60.02233,-4.52528,8,2,2014-05-08 15:05:33,1399561533,10.136,26,11.1,0,0,60.0587,-4.5413,3,5
123,2014-05-08 16:05:17,1399565117,60.07372,-4.45932,2,4,2014-05-08 16:05:09,1399565109,10.179,26,11.1,0,0,60.0624,-4.5261,3,4
124,2014-05-08 17:05:12,1399568712,60.0427,-4.45374,2,2,2014-05-08 17:05:12,1399568712,10.179,28,11.1,0,0,60.066,-4.5116,3,5
125,2014-05-08 18:05:11,1399572311,60.04027,-4.52528,2,2,2014-05-08 18:05:13,1399572313,10.136,28,11.1,0,0,60.0695,-4.4989,3,5
126,2014-05-08 19:05:21,1399575921,60.10231,-4.53663,11,2,2014-05-08 19:05:31,1399575931,10.05,28,11.1,0,0,60.0727,-4.4905,3,5
127,2014-05-08 20:05:12,1399579512,60.07372,-4.45932,1,1,2014-05-08 20:05:44,1399579544,10.007,28,11.1,0,0,60.0759,-4.4857,3,5
128,2014-05-08 21:05:21,1399583121,60.07372,-4.45932,4,4,2014-05-08 21:05:03,1399583103,10.007,29,11.1,0,0,60.079,-4.4834,3,5
129,2014-05-08 22:05:12,1399586712,60.07128,-4.53095,7,2,2014-05-08 22:05:13,1399586713,9.964,29,11.1,0,0,60.0827,-4.4823,3,4
130,2014-05-08 23:05:26,1399590326,60.0427,-4.45374,7,1,2014-05-08 23:05:13,1399590313,9.964,29,11.1,0,0,60.0859,-4.4809,3,4
131,2014-05-09 00:05:20,1399593920,60.07128,-4.53095,3,2,2014-05-09 00:05:01,1399593901,9.964,29,11.1,0,0,60.09,-4.4762,3,5
132,2014-05-09 01:05:13,1399597513,60.07128,-4.53095,3,2,2014-05-09 01:05:43,1399597543,9.964,29,11.1,0,0,60.0942,-4.4679,3,4
133,2014-05-09 02:05:10,1399601110,60.07612,-4.38768,3,2,2014-05-09 02:05:12,1399601112,9.921,29,11.1,0,0,60.0983,-4.4544,3,5
134,2014-05-09 03:05:12,1399604712,60.07372,-4.45932,2,2,2014-05-09 03:05:02,1399604702,9.921,29,11.1,0,0,60.1155,-4.4394,3,5
135,2014-05-09 04:05:22,1399608322,60.12505,-4.39319,3,1,2014-05-09 04:05:12,1399608312,9.878,29,11.1,0,0,60.1058,-4.4177,3,5
136,2014-05-09 05:05:13,1399611913,60.12505,-4.39319,2,2,2014-05-09 05:05:31,1399611931,9.878,28,11.1,0,0,60.1088,-4.3973,3,5
137,2014-05-09 06:05:12,1399615512,60.00494,-8.35336,232,2,2014-05-09 06:05:07,1399615507,9.878,28,11.1,0,0,60.1115,-4.3805,3,3
138,2014-05-09 07:05:13,1399619113,60.07612,-4.38768,5,2,2014-05-09 07:05:36,1399619136,9.878,28,11.1,0,0,60.1138,-4.3669,3,4
139,2014-05-09 08:05:14,1399622714,60.14875,-4.61412,481,3,2014-05-09 08:05:11,1399622711,9.878,28,11.1,0,0,60.1159,-4.3581,3,5
140,2014-05-09 09:05:22,1399626322,60.12505,-4.39319,3,2,2014-05-09 09:05:08,1399626308,9.921,26,11.1,0,0,60.1181,-4.3534,3,5
141,2014-05-09 10:05:23,1399629923,60.07612,-4.38768,16,2,2014-05-09 10:05:32,1399629932,9.964,26,11.1,0,0,60.1203,-4.3512,3,4
142,2014-05-09 11:05:18,1399633518,60.12741,-4.32144,2,2,2014-05-09 11:05:14,1399633514,9.921,26,11.1,0,0,60.1226,-4.3503,3,5
143,2014-05-09 12:05:13,1399637113,60.03317,-1.07686,194,2,2014-05-09 12:05:51,1399637151,10.007,26,11.1,0,0,60.1248,-4.3485,3,5
144,2014-05-09 13:05:12,1399640712,60.12505,-4.39319,2,2,2014-05-09 13:05:12,1399640712,10.007,31,11.1,0,0,60.1278,-4.3444,3,5
145,2014-05-09 14:05:12,1399644312,60.12741,-4.32144,2,1,2014-05-09 14:05:42,1399644342,10.007,31,11.1,0,0,60.1314,-4.3356,3,3
146,2014-05-09 15:05:13,1399647913,60.12974,-4.24968,2,2,2014-05-09 15:05:42,1399647942,10.007,31,11.1,0,0,60.135,-4.322,3,5
147,2014-05-09 16:05:14,1399651514,60.12505,-4.39319,2,2,2014-05-09 16:05:11,1399651511,10.007,31,11.1,0,0,60.1383,-4.3046,3,5
148,2014-05-09 17:05:09,1399655109,60.12741,-4.32144,2,2,2014-05-09 17:05:12,1399655112,10.05,26,11.1,0,0,60.1419,-4.2862,3,5
149,2014-05-09 18:05:12,1399658712,60.12974,-4.24968,2,1,2014-05-09 18:05:08,1399658708,10.05,26,11.1,0,0,60.145,-4.2669,3,5
150,2014-05-09 19:05:11,1399662311,60.12974,-4.24968,5,6,2014-05-09 19:05:43,1399662343,10.093,26,11.1,0,0,60.147,-4.2513,3,5
151,2014-05-09 20:05:11,1399665911,60.16079,-4.25502,3,1,2014-05-09 20:05:06,1399665906,10.05,26,11.1,0,0,60.1487,-4.2395,3,5
152,2014-05-09 21:05:12,1399669512,60.12974,-4.24968,10,3,2014-05-09 21:05:12,1399669512,10.007,24,11.1,0,0,60.1502,-4.2328,3,5
153,2014-05-09 22:05:12,1399673112,60.12974,-4.24968,2,2,2014-05-09 22:05:08,1399673108,10.007,24,11.1,0,0,60.1552,-4.2302,3,5
154,2014-05-09 23:05:11,1399676711,60.12974,-4.24968,3,2,2014-05-09 23:05:56,1399676756,9.964,24,11.1,0,0,60.1528,-4.2293,3,5
155,2014-05-10 00:05:12,1399680312,60.13203,-4.17791,2,1,2014-05-10 00:05:28,1399680328,9.964,24,11.1,0,0,60.1537,-4.2288,3,5
156,2014-05-10 01:05:10,1399683910,60.62358,2.34328,374,2,2014-05-10 01:05:43,1399683943,9.964,24,11.1,0,0,60.1546,-4.2279,3,5
157,2014-05-10 02:05:36,1399687536,60.12974,-4.24968,2,2,2014-05-10 02:05:12,1399687512,9.964,24,11.1,0,0,60.1563,-4.2227,18,5
158,2014-05-10 03:05:20,1399691120,60.16309,-4.18316,2,2,2014-05-10 03:05:43,1399691143,9.964,24,11.1,0,0,60.1583,-4.2123,3,3
159,2014-05-10 04:05:09,1399694709,60.16534,-4.11129,2,2,2014-05-10 04:05:23,1399694723,9.964,24,11.1,0,0,60.1602,-4.1985,3,5
160,2014-05-10 05:05:09,1399698309,60.16079,-4.25502,2,2,2014-05-10 05:05:55,1399698355,9.964,27,11.1,0,0,60.1616,-4.181,3,5
161,2014-05-10 06:05:12,1399701912,60.13203,-4.17791,8,1,2014-05-10 06:05:43,1399701943,9.964,27,11.1,0,0,60.1628,-4.165,3,5
162,2014-05-10 07:05:11,1399705511,60.1832,-4.11129,3,1,2014-05-10 07:05:12,1399705512,10.007,27,11.1,0,0,60.1637,-4.1514,3,5
163,2014-05-10 08:05:10,1399709110,60.13428,-4.10613,3,2,2014-05-10 08:05:02,1399709102,10.007,27,11.1,0,0,60.1647,-4.1423,3,5
164,2014-05-10 09:05:11,1399712711,60.16534,-4.11129,2,4,2014-05-10 09:05:03,1399712703,10.007,23,11.1,0,0,60.1657,-4.1385,3,5
165,2014-05-10 10:05:11,1399716311,60.13428,-4.10613,4,1,2014-05-10 10:05:12,1399716312,10.007,23,11.1,0,0,60.1669,-4.1395,3,4
166,2014-05-10 11:05:11,1399719911,60.16309,-4.18316,2,2,2014-05-10 11:05:19,1399719919,10.05,23,11.1,0,0,60.1683,-4.1435,3,5
167,2014-05-10 12:05:11,1399723511,60.16534,-4.11129,2,1,2014-05-10 12:05:09,1399723509,10.05,23,11.1,0,0,60.1694,-4.1488,3,5
168,2014-05-10 13:05:08,1399727108,60.21201,-4.18843,6,2,2014-05-10 13:05:22,1399727122,10.093,27,11.1,0,0,60.1709,-4.1522,3,3
169,2014-05-10 14:05:08,1399730708,60.16079,-4.25502,5,2,2014-05-10 14:05:01,1399730701,10.136,27,11.1,0,0,60.1731,-4.1517,3,5
170,2014-05-10 15:05:11,1399734311,60.16309,-4.18316,2,1,2014-05-10 15:05:44,1399734344,10.136,27,11.1,0,0,60.1756,-4.146,3,5
171,2014-05-10 16:05:11,1399737911,60.13428,-4.10613,3,2,2014-05-10 16:05:22,1399737922,10.093,27,11.1,0,0,60.178,-4.1355,3,5
172,2014-05-10 17:05:09,1399741509,60.16534,-4.11129,5,1,2014-05-10 17:05:38,1399741538,10.093,27,11.1,0,0,60.1809,-4.1211,3,5
173,2014-05-10 18:05:13,1399745113,60.16534,-4.11129,8,1,2014-05-10 18:05:55,1399745155,10.05,27,11.1,0,0,60.1837,-4.1053,3,5
174,2014-05-10 19:05:12,1399748712,60.18541,-4.0394,2,2,2014-05-10 19:05:14,1399748714,10.007,27,11.1,0,0,60.1866,-4.0905,3,4
175,2014-05-10 20:05:11,1399752311,60.21648,-4.04449,5,2,2014-05-10 20:05:08,1399752308,10.007,27,11.1,0,0,60.1898,-4.0768,3,5
176,2014-05-10 21:05:13,1399755913,60.18541,-4.0394,3,1,2014-05-10 21:05:13,1399755913,10.007,26,11.1,0,0,60.1925,-4.0688,3,5
177,2014-05-10 22:05:11,1399759511,60.18541,-4.0394,1,2,2014-05-10 22:05:10,1399759510,10.007,26,11.1,0,0,60.1949,-4.0651,3,5
178,2014-05-10 23:07:02,1399763222,60.18541,-4.0394,3,2,2014-05-10 23:05:05,1399763105,10.007,26,11.1,0,0,60.1973,-4.0652,114,1
179,2014-05-11 00:05:09,1399766709,60.1832,-4.11129,2,2,2014-05-11 00:05:13,1399766713,10.007,26,11.1,0,0,60.2,-4.0675,3,5
180,2014-05-11 01:05:23,1399770323,60.16755,-4.0394,15,2,2014-05-11 01:05:10,1399770310,10.007,29,11.1,0,0,60.2022,-4.0677,3,5
181,2014-05-11 02:05:10,1399773910,60.21648,-4.04449,2,1,2014-05-11 02:05:04,1399773904,9.964,29,11.1,0,0,60.2051,-4.0646,3,5
182,2014-05-11 03:05:10,1399777510,60.18541,-4.0394,3,2,2014-05-11 03:05:32,1399777532,9.964,29,11.1,0,0,60.2084,-4.0572,3,5
183,2014-05-11 04:05:11,1399781111,60.18541,-4.0394,4,1,2014-05-11 04:05:49,1399781149,9.964,29,11.1,0,0,60.2114,-4.0417,3,5
184,2014-05-11 05:05:11,1399784711,60.26539,-4.04958,4,3,2014-05-11 05:05:02,1399784702,9.964,26,11.1,0,0,60.215,-4.0235,3,2
185,2014-05-11 06:05:12,1399788312,60.26539,-4.04958,10,2,2014-05-11 06:05:43,1399788343,9.964,26,11.1,0,0,60.2173,-4.0009,3,3
186,2014-05-11 07:05:13,1399791913,60.21866,-3.9725,2,2,2014-05-11 07:05:10,1399791910,9.964,26,11.1,0,0,60.2187,-3.9792,3,5
187,2014-05-11 08:05:18,1399795518,60.37167,-6.54039,157,2,2014-05-11 08:05:24,1399795524,9.921,26,11.1,0,0,60.2195,-3.9603,3,5
188,2014-05-11 09:05:19,1399799119,60.21866,-3.9725,1,2,2014-05-11 09:05:44,1399799144,9.964,31,11.1,0,0,60.2199,-3.9471,3,4
189,2014-05-11 10:05:09,1399802709,60.26539,-4.04958,30,1,2014-05-11 10:05:12,1399802712,9.964,31,11.1,0,0,60.2195,-3.9422,3,2
190,2014-05-11 11:05:24,1399806324,60.26757,-3.9775,5,4,2014-05-11 11:05:20,1399806320,9.964,31,11.1,0,0,60.2196,-3.9438,3,5
191,2014-05-11 12:05:11,1399809911,60.15463,-3.38761,80,2,2014-05-11 12:05:15,1399809915,9.921,31,11.1,0,0,60.2195,-3.95,3,5
192,2014-05-11 13:05:23,1399813523,60.2208,-3.90049,3,2,2014-05-11 13:05:13,1399813513,9.921,28,11.1,0,0,60.2194,-3.9578,16,5
193,2014-05-11 14:05:18,1399817118,60.19036,-2.59602,101,3,2014-05-11 14:05:38,1399817138,9.964,28,11.1,0,0,60.2195,-3.9636,3,5
194,2014-05-11 15:05:20,1399820720,60.18758,-3.9675,5,2,2014-05-11 15:05:14,1399820714,9.921,28,11.1,0,0,60.2199,-3.9649,3,5
195,2014-05-11 16:05:11,1399824311,60.2208,-3.90049,3,3,2014-05-11 16:05:06,1399824306,9.921,28,11.1,0,0,60.2208,-3.9608,3,5
196,2014-05-11 17:05:10,1399827910,60.2208,-3.90049,1,2,2014-05-11 17:05:08,1399827908,9.878,33,11.1,0,0,60.2219,-3.951,3,5
197,2014-05-11 18:05:11,1399831511,60.09858,0.57582,261,4,2014-05-11 18:05:09,1399831509,9.921,33,11.1,0,0,60.2232,-3.9374,3,5
198,2014-05-11 19:05:29,1399835129,60.26972,-3.90541,7,4,2014-05-11 19:05:10,1399835110,9.878,33,11.1,0,0,60.2248,-3.9224,22,5
199,2014-05-11 20:05:09,1399838709,60.2208,-3.90049,1,1,2014-05-11 20:05:33,1399838733,9.878,33,11.1,0,0,60.2266,-3.9087,3,5
200,2014-05-11 21:05:27,1399842327,60.29401,-2.96716,84,2,2014-05-11 21:05:07,1399842307,9.878,27,11.1,0,0,60.2278,-3.8999,18,1
201,2014-05-11 22:05:20,1399845920,60.18972,-3.89559,5,2,2014-05-11 22:05:09,1399845909,9.878,27,11.1,0,0,60.2288,-3.8966,3,3
202,2014-05-11 23:05:43,1399849543,60.30567,-2.38896,110,2,2014-05-11 23:05:09,1399849509,9.878,27,11.1,0,0,60.2296,-3.8986,24,2
203,2014-05-12 00:05:30,1399853130,60.18972,-3.89559,3,1,2014-05-12 00:05:12,1399853112,9.878,27,11.1,0,0,60.2304,-3.905,23,5
204,2014-05-12 01:05:24,1399856724,60.21866,-3.9725,3,9,2014-05-12 01:05:41,1399856741,9.878,25,11.1,0,0,60.2311,-3.9137,3,5
205,2014-05-12 02:05:10,1399860310,60.2208,-3.90049,2,2,2014-05-12 02:05:12,1399860312,9.878,25,11.1,0,0,60.2317,-3.9211,3,5
206,2014-05-12 03:05:11,1399863911,60.21866,-3.9725,4,3,2014-05-12 03:05:44,1399863944,9.835,25,11.1,0,0,60.2322,-3.9247,3,5
207,2014-05-12 04:05:42,1399867542,60.26757,-3.9775,12,2,2014-05-12 04:05:10,1399867510,9.835,25,11.1,0,0,60.2329,-3.9228,33,5
208,2014-05-12 05:05:09,1399871109,60.2208,-3.90049,2,4,2014-05-12 05:05:44,1399871144,9.835,23,11.1,0,0,60.2341,-3.9141,3,5
209,2014-05-12 06:05:13,1399874713,60.2229,-3.82848,2,1,2014-05-12 06:05:12,1399874712,9.878,23,11.1,0,0,60.235,-3.9014,3,3
210,2014-05-12 07:05:12,1399878312,60.2208,-3.90049,2,2,2014-05-12 07:05:38,1399878338,9.878,23,11.1,0,0,60.2355,-3.8864,3,5
211,2014-05-12 08:05:12,1399881912,60.2208,-3.90049,2,1,2014-05-12 08:05:13,1399881913,9.878,23,11.1,0,0,60.236,-3.8735,3,5
212,2014-05-12 09:05:30,1399885530,60.26972,-3.90541,4,1,2014-05-12 09:05:08,1399885508,9.921,25,11.1,0,0,60.2364,-3.8641,25,5
213,2014-05-12 10:05:13,1399889113,60.30364,-5.58098,117,2,2014-05-12 10:05:09,1399889109,9.964,25,11.1,0,0,60.2363,-3.8609,3,5
214,2014-05-12 11:05:10,1399892710,60.2229,-3.82848,3,1,2014-05-12 11:05:51,1399892751,10.007,25,11.1,0,0,60.2363,-3.8655,3,5
215,2014-05-12 12:05:12,1399896312,60.31546,-5.29275,99,2,2014-05-12 12:05:44,1399896344,10.007,25,11.1,0,0,60.2365,-3.8762,3,5
216,2014-05-12 13:05:22,1399899922,60.21866,-3.9725,2,1,2014-05-12 13:05:11,1399899911,10.007,27,11.1,0,0,60.2367,-3.8906,3,5
217,2014-05-12 14:05:10,1399903510,60.2229,-3.82848,3,1,2014-05-12 14:05:14,1399903514,10.05,27,11.1,0,0,60.2372,-3.9051,3,4
218,2014-05-12 15:05:28,1399907128,60.2208,-3.90049,1,2,2014-05-12 15:05:07,1399907107,10.05,27,11.1,0,0,60.2382,-3.9164,22,5